Regional Weather Roundup
Issued by NWS

Home | Current Version | Previous Version | Graphics & Text | Print | Product List | Glossary On
Versions: 1 2 3 4 5 6 7 8 9 10 11 12 13 14 15 16 17 18 19 20 21 22 23 24 25 26 27 28 29 30 31 32 33 34 35 36 37 38 39 40 41 42 43 44 45 46 47 48 49 50
940
ASUS43 KOAX 250610
RWRNE

WEATHER ROUNDUP FOR NEBRASKA
NATIONAL WEATHER SERVICE OMAHA NE
100 AM CDT MON JUL 25 2016

NOTES: SATELLITE DATA IS BEING USED TO AUGMENT CLOUD COVER ABOVE
       12000 FEET.
       "FAIR" INDICATES FEW OR NO CLOUDS BELOW 12,000 FEET WITH NO
       SIGNIFICANT WEATHER AND/OR OBSTRUCTIONS TO VISIBILITY.

  * THESE STATIONS DO NOT REPORT WEATHER SUCH AS RAIN...SNOW OR FOG.

NEZ001>004-019>022-054>056-250700-
NEBRASKA PANHANDLE

CITY           SKY/WX    TMP DP  RH WIND       PRES   REMARKS
SCOTTSBLUFF    CLEAR     62  55  77 VRB3      30.20R
6HR MIN TEMP:  62; 6HR MAX TEMP:  82;

ALLIANCE       CLEAR     60  56  86 S8        30.19R
6HR MIN TEMP:  59; 6HR MAX TEMP:  80;

CHADRON        CLEAR     73  54  51 S18G24    30.13S
6HR MIN TEMP:  73; 6HR MAX TEMP:  88;

KIMBALL        CLEAR     60  57  89 SW10      30.26S
SIDNEY         CLEAR     55  52  89 W6        30.23S
6HR MIN TEMP:  55; 6HR MAX TEMP:  72; 6HR PCP:  0.01;

$$

NEZ057>060-069>072-079>082-250700-
SOUTHWEST NEBRASKA

CITY           SKY/WX    TMP DP  RH WIND       PRES   REMARKS
NORTH PLATTE   PTCLDY    67  62  84 E5        30.16R
6HR MIN TEMP:  66; 6HR MAX TEMP:  82;

IMPERIAL       CLOUDY    68  58  70 NE7       30.16R
6HR MIN TEMP:  67; 6HR MAX TEMP:  85; 6HR PCP:  0.07;

LEXINGTON      CLOUDY    71  63  76 E3        30.13S
MCCOOK         CLOUDY    74  58  57 NE38G49   30.09F
6HR MIN TEMP:  72; 6HR MAX TEMP:  86;

OGALLALA       CLOUDY    69  60  73 E8        30.15S
$$

NEZ005>010-023>029-035>040-094-250700-
NORTH CENTRAL NEBRASKA

CITY           SKY/WX    TMP DP  RH WIND       PRES   REMARKS
VALENTINE      CLEAR     67  56  67 SE3       30.15R
6HR MIN TEMP:  65; 6HR MAX TEMP:  87;

AINSWORTH      PTCLDY    64  58  81 S5        30.15S
BROKEN BOW     CLOUDY    63  62  97 CALM      30.14R
6HR MIN TEMP:  63; 6HR MAX TEMP:  80;

O`NEILL        MOCLDY    67  59  74 CALM      30.14R
ORD            PTCLDY    66  60  81 CALM      30.11S
6HR MIN TEMP:  66; 6HR MAX TEMP:  82;

THEDFORD       CLOUDY    68  61  77 S5        30.17S
$$

NEZ041-046>049-061>064-073>077-083>087-250700-
SOUTH CENTRAL NEBRASKA

CITY           SKY/WX    TMP DP  RH WIND       PRES   REMARKS
GRAND ISLAND   MOCLDY    68  63  84 NE6       30.12S
6HR MIN TEMP:  67; 6HR MAX TEMP:  85;

AURORA         MOCLDY    67  65  94 NE5       30.11S
HASTINGS       CLOUDY    68  63  84 NE6       30.11F
6HR MIN TEMP:  68; 6HR MAX TEMP:  83;

HEBRON         MOCLDY    68  63  86 CALM      30.07F
HOLDREGE       CLOUDY    68  64  88 NE6       30.11F
KEARNEY *      MOCLDY    66  61  82 NE7       30.12F
YORK           CLOUDY    66  64  94 CALM      30.11S
$$

NEZ011>018-030>034-042>045-250700-
NORTHEAST NEBRASKA

CITY           SKY/WX    TMP DP  RH WIND       PRES   REMARKS
NORFOLK        PTCLDY    62  59  90 CALM      30.10S
6HR MIN TEMP:  62; 6HR MAX TEMP:  81;

ALBION         CLOUDY    62  59  90 CALM      30.12S
BLAIR          CLOUDY    71  66  84 N7        30.08S
FREMONT        CLOUDY    69  64  85 CALM      30.09R
TEKAMAH        MOCLDY    67  64  90 N7        30.07R
6HR MIN TEMP:  67; 6HR MAX TEMP:  85;

WAYNE          CLEAR     61  59  94 CALM      30.11R
$$

NEZ050>053-065>068-078-088>093-250700-
SOUTHEAST NEBRASKA

CITY           SKY/WX    TMP DP  RH WIND       PRES   REMARKS
LINCOLN        MOCLDY    72  65  78 NW3       30.09R
6HR MIN TEMP:  67; 6HR MAX TEMP:  84;

OMAHA EPPLEY   CLOUDY    71  66  84 N7        30.06R
6HR MIN TEMP:  71; 6HR MAX TEMP:  84;

BEATRICE       PTCLDY    66  64  93 N3        30.07S
FALLS CITY     PTCLDY    70  66  87 CALM      30.03S
6HR MIN TEMP:  70; 6HR MAX TEMP:  78;

NEBRASKA CITY  CLEAR     69  66  89 N5        30.07R
PLATTSMOUTH    PTCLDY    69  65  89 CALM      30.07S
$$

NEZ044-045-051>053-067-250700-
OMAHA AREA

CITY           SKY/WX    TMP DP  RH WIND       PRES   REMARKS
OMAHA EPPLEY   CLOUDY    71  66  84 N7        30.06R
6HR MIN TEMP:  71; 6HR MAX TEMP:  84;

BLAIR          CLOUDY    71  66  84 N7        30.08S
FREMONT        CLOUDY    69  64  85 CALM      30.09R
MILLARD        MOCLDY    74  66  77 CALM      30.06S
OFFUTT AFB     PTCLDY    72  65  80 N6        30.06R
PLATTSMOUTH    PTCLDY    69  65  89 CALM      30.07S
WAHOO          FAIR      68  66  91 N5        30.08S
$$




USA.gov is the U.S. government's official web portal to all federal, state and local government web resources and services.